TimeCST,TemperatureF,Dew PointF,Humidity,Sea Level PressureIn,VisibilityMPH,Wind Direction,Wind SpeedMPH,Gust SpeedMPH,PrecipitationIn,Events,Conditions,WindDirDegrees,DateUTC
12:53 AM,-14.1,-18.9,79,30.16,10.0,Calm,Calm,-,0.00,,Clear,0,2013-12-10 06:53:00
1:53 AM,-14.1,-20.0,75,30.10,10.0,Calm,Calm,-,0.00,,Scattered Clouds,0,2013-12-10 07:53:00
2:53 AM,-2.0,-8.0,76,30.05,10.0,SW,4.6,-,N/A,,Mostly Cloudy,230,2013-12-10 08:53:00
3:53 AM,6.1,-5.1,60,30.01,9.0,SSW,15.0,21.9,0.00,Snow,Light Snow,200,2013-12-10 09:53:00
4:37 AM,5.0,-2.9,70,29.93,1.8,SSW,9.2,-,0.00,Snow,Light Snow,200,2013-12-10 10:37:00
4:43 AM,5.0,-2.0,73,29.93,2.0,SSW,9.2,-,0.00,Snow,Light Snow,200,2013-12-10 10:43:00
4:53 AM,6.1,-0.9,73,29.97,1.8,SSW,9.2,-,0.00,Snow,Light Snow,200,2013-12-10 10:53:00
5:24 AM,6.1,-0.0,76,29.90,3.0,SSW,8.1,-,0.00,Snow,Light Snow,200,2013-12-10 11:24:00
5:42 AM,7.0,1.0,77,29.91,4.0,SSW,5.8,-,0.00,Snow,Light Snow,210,2013-12-10 11:42:00
5:53 AM,8.1,1.0,73,29.96,3.0,SSW,6.9,-,0.00,Snow,Light Snow,210,2013-12-10 11:53:00
6:00 AM,8.1,1.9,76,29.91,2.0,SSW,8.1,-,0.00,Snow,Light Snow,200,2013-12-10 12:00:00
6:13 AM,8.1,1.9,76,29.90,3.0,SW,6.9,-,0.00,Snow,Light Snow,220,2013-12-10 12:13:00
6:21 AM,9.0,3.0,77,29.90,2.5,SSW,6.9,-,0.00,Snow,Light Snow,210,2013-12-10 12:21:00
6:53 AM,9.0,3.9,80,29.95,2.0,SSW,8.1,-,0.00,Snow,Light Snow,200,2013-12-10 12:53:00
7:15 AM,10.0,5.0,80,29.90,4.0,SSW,5.8,-,0.00,Snow,Light Snow,210,2013-12-10 13:15:00
7:53 AM,9.0,3.9,80,29.97,2.5,SW,6.9,-,0.00,Snow,Light Snow,220,2013-12-10 13:53:00
8:05 AM,9.0,3.9,80,29.91,4.0,SW,6.9,-,0.00,Snow,Light Snow,230,2013-12-10 14:05:00
8:53 AM,14.0,8.1,77,29.99,9.0,SW,9.2,-,0.00,,Overcast,230,2013-12-10 14:53:00
9:25 AM,17.1,8.1,68,29.96,1.8,West,13.8,25.3,0.00,Snow,Light Snow,260,2013-12-10 15:25:00
9:42 AM,16.0,9.0,74,29.98,1.0,West,13.8,20.7,0.00,Snow,Light Snow,280,2013-12-10 15:42:00
9:49 AM,15.8,6.8,68,29.99,2.0,West,18.4,27.6,0.00,Snow,Light Snow,280,2013-12-10 15:49:00
9:53 AM,16.0,5.0,62,30.05,4.0,West,16.1,27.6,0.00,Snow,Light Snow,270,2013-12-10 15:53:00
10:53 AM,15.1,1.9,56,30.09,10.0,West,15.0,27.6,0.00,,Mostly Cloudy,260,2013-12-10 16:53:00
11:04 AM,15.1,1.0,54,30.04,10.0,West,12.7,25.3,N/A,,Mostly Cloudy,260,2013-12-10 17:04:00
11:53 AM,15.1,1.0,54,30.11,10.0,West,18.4,24.2,0.00,,Partly Cloudy,270,2013-12-10 17:53:00
12:53 PM,15.1,1.9,56,30.14,10.0,West,12.7,20.7,N/A,,Partly Cloudy,280,2013-12-10 18:53:00
1:53 PM,16.0,1.0,52,30.17,10.0,WSW,10.4,23.0,N/A,,Clear,240,2013-12-10 19:53:00
2:53 PM,15.1,1.0,54,30.17,10.0,West,13.8,19.6,0.00,,Clear,270,2013-12-10 20:53:00
3:53 PM,12.9,-0.0,56,30.19,10.0,WSW,8.1,-,0.00,,Clear,240,2013-12-10 21:53:00
4:53 PM,10.9,-0.0,61,30.20,10.0,WSW,5.8,-,0.00,,Clear,240,2013-12-10 22:53:00
5:53 PM,10.9,-0.0,61,30.25,10.0,SW,6.9,-,N/A,,Partly Cloudy,220,2013-12-10 23:53:00
6:53 PM,10.9,1.9,67,30.24,10.0,SW,5.8,-,N/A,,Mostly Cloudy,220,2013-12-11 00:53:00
7:53 PM,12.9,3.0,65,30.26,10.0,SW,6.9,-,N/A,,Overcast,220,2013-12-11 01:53:00
8:53 PM,14.0,3.9,64,30.27,10.0,SW,6.9,-,N/A,,Overcast,220,2013-12-11 02:53:00
9:53 PM,14.0,7.0,74,30.28,4.0,SW,5.8,-,0.00,,Haze,220,2013-12-11 03:53:00
10:20 PM,14.0,9.0,80,30.23,2.5,SSW,6.9,-,0.00,Snow,Light Snow,210,2013-12-11 04:20:00
10:53 PM,14.0,10.0,84,30.29,1.8,SSW,5.8,-,0.00,Snow,Light Snow,210,2013-12-11 04:53:00
11:00 PM,14.0,10.0,84,30.24,1.8,SSW,5.8,-,0.00,Snow,Light Snow,210,2013-12-11 05:00:00
11:14 PM,15.1,10.0,80,30.25,2.0,SW,5.8,-,0.00,Snow,Light Snow,220,2013-12-11 05:14:00
11:33 PM,15.1,10.9,84,30.25,1.8,SW,3.5,-,0.00,Snow,Light Snow,220,2013-12-11 05:33:00
11:48 PM,15.8,10.4,79,30.24,2.0,SSW,5.8,-,0.00,Snow,Light Snow,210,2013-12-11 05:48:00
11:53 PM,15.1,10.9,84,30.29,2.0,SW,4.6,-,0.00,Snow,Light Snow,220,2013-12-11 05:53:00